[[{"header":{"parameterUnit":"m.s-1","parameterCategory":1,"la1":30.2991,"la2":30.254,"lo1":-89.0895,"lo2":-89.0444,"dy":0.0017,"dx":0.0017,"nx":28,"ny":28,"refTime":"2024-04-28T21:00:00:Z","depth":0,"parameterNumber":2,"parameterNumberName":"U-component_of_WINDS"},"data":[0,0,0,0,0,0,0,0,0,0,0,0,0,0,0,0,0,0,0,0,0,0,0,0,0,0,0,0,0,0,0,0,0,0,0,0,0,0,0,0,0,0,0,0,0,0,0,0,0,0,0,0,0,0,0,0,0,0,-7.2823,-7.2824,0,-7.2948,-7.295,-7.2951,-7.2894,-7.2891,-7.2888,-7.2885,-7.3009,-7.3015,-7.3021,0,0,0,0,0,0,0,0,0,0,0,0,0,-7.253,-7.2536,-7.2823,-7.2824,-7.2826,-7.2948,-7.295,-7.2952,-7.2894,-7.2891,-7.2887,-7.2883,-7.3007,-7.3015,-7.3022,0,0,0,0,0,0,0,0,0,0,0,0,0,-7.2657,-7.2538,-7.2822,-7.2812,-7.2812,-7.2948,-7.295,-7.2952,-7.2895,-7.289,-7.2886,-7.2881,-7.3005,-7.3014,-7.3023,-7.3174,0,0,-7.3052,-7.3056,0,0,0,0,0,0,0,0,-7.2649,-7.2667,-7.2812,-7.2813,-7.2814,-7.2901,-7.2892,-7.3026,-7.2896,-7.2864,-7.2885,-7.2879,-7.2977,-7.2988,-7.3022,-7.318,-7.3186,-7.3052,-7.3058,-7.3062,-7.3065,0,0,0,0,0,0,0,-7.2641,-7.2662,-7.2872,-7.2814,-7.2815,-7.28,-7.2813,-7.2917,-7.2945,-7.2866,-7.2862,-7.2878,-7.2976,-7.3013,-7.3024,-7.3187,-7.3052,-7.306,-7.3066,-7.307,-7.3476,-7.3481,0,0,0,0,0,0,-7.2633,-7.2655,-7.2868,-7.2876,-7.2719,-7.2809,-7.2824,-7.2877,-7.2943,-7.2949,-7.2882,-7.2875,-7.2999,-7.3013,-7.3028,-7.3208,-7.3062,-7.3071,-7.3076,-7.3471,-7.3477,-7.3482,0,0,0,0,0,0,-7.2627,-7.2652,-7.2863,-7.2764,-7.279,-7.2819,-7.288,-7.2882,-7.2919,-7.2956,-7.296,-7.2915,-7.2996,-7.3015,-7.3139,-7.3212,-7.3075,-7.3083,-7.3464,-7.3472,-7.348,-7.357,0,0,0,0,0,0,-7.2618,-7.265,-7.2709,-7.2766,-7.2796,-7.2972,-7.2885,-7.2888,-7.2936,-7.2928,-7.2987,-7.2993,-7.2994,-7.3125,-7.3148,-7.3222,-7.3091,-7.3458,-7.3468,-7.3477,-7.356,-7.358,-7.3596,0,0,0,0,0,-7.2608,-7.2728,-7.2712,-7.2738,-7.2869,-7.2977,-7.2993,-7.2993,-7.2942,-7.3,-7.3024,-7.2991,-7.3201,-7.3138,-7.3163,-7.3241,-7.3453,-7.3465,-7.3476,-7.3552,-7.3576,-7.3596,0,0,0,0,0,0,-7.2677,-7.2736,-7.2718,-7.2861,-7.2914,-7.2967,-7.304,-7.3019,-7.3087,-7.3076,-7.3073,-7.3087,-7.3214,-7.3241,-7.3169,-7.3391,-7.3319,-7.3336,-7.3368,-7.3391,-7.3409,-7.3397,-7.3099,0,0,0,0,0,-7.2709,-7.2792,-7.2839,-7.296,-7.2988,-7.301,-7.3057,-7.3053,-7.3107,-7.3129,-7.3162,-7.3215,-7.3293,-7.3344,-7.3418,-7.3566,-7.3577,-7.3632,-7.365,-7.3665,-7.3678,-7.3757,-7.3781,-7.3521,-7.3521,-7.352,0,0,-7.2775,-7.2818,-7.287,-7.2975,-7.3016,-7.3101,-7.3029,-7.3122,-7.3184,-7.3143,-7.326,-7.3287,-7.3347,-7.3483,-7.3544,-7.3509,-7.3754,-7.368,-7.3691,-7.3697,-7.3771,-7.3796,-7.3818,-7.3529,-7.3527,-7.3526,0,0,-7.2938,-7.2981,-7.3085,-7.3129,-7.3192,-7.3206,-7.3232,-7.3289,-7.3305,-7.3424,-7.3394,-7.3469,-7.3604,-7.3647,-7.3686,-7.3869,-7.384,-7.3894,-7.3985,-7.4062,-7.4083,-7.4101,-7.4163,-7.4186,-7.3908,-7.3908,-7.3908,0,-7.3011,-7.3139,-7.3141,-7.3237,-7.3283,-7.3253,-7.3358,-7.3399,-7.3484,-7.3516,-7.3476,-7.3645,-7.3683,-7.3828,-7.3873,-7.3907,-7.3934,-7.3884,-7.408,-7.4098,-7.4115,-7.4174,-7.4198,-7.3914,-7.3913,-7.3913,-7.3912,0,-7.3225,-7.3315,-7.3392,-7.3475,-7.3531,-7.3631,-7.3647,-7.3703,-7.3696,-7.3714,-7.3835,-7.3881,-7.3962,-7.3998,-7.3991,-7.4142,-7.4117,-7.408,-7.4006,-7.4145,-7.4201,-7.4224,-7.3922,-7.392,-7.3919,-7.3917,0,0,-7.343,-7.3516,-7.3544,-7.3581,-7.3651,-7.3719,-7.3819,-7.39,-7.3947,-7.4008,-7.4089,-7.4205,-7.4171,-7.4216,-7.4214,-7.4282,-7.4421,-7.4235,-7.4237,-7.4265,-7.4587,-7.4613,-7.4639,-7.4405,-7.4409,-7.4413,-7.4581,0,-7.3596,-7.377,-7.3775,-7.3934,-7.4015,-7.3989,-7.4075,-7.4126,-7.4147,-7.4218,-7.4241,-7.4322,-7.4272,-7.4299,-7.4365,-7.439,-7.4485,-7.4379,-7.4477,-7.4481,-7.4458,-7.4668,-7.4695,-7.4852,-7.4603,-7.4607,-7.461,0,-7.3811,-7.3879,-7.4046,-7.4104,-7.4138,-7.4216,-7.4291,-7.4361,-7.4419,-7.4429,-7.4481,-7.447,-7.457,-7.4497,-7.4634,-7.4561,-7.4603,-7.4622,-7.4628,-7.4633,-7.455,-7.4676,-7.4902,-7.4924,-7.4645,-7.4642,-7.4639,0,-7.394,-7.4074,-7.419,-7.4224,-7.4295,-7.435,-7.4382,-7.4436,-7.4485,-7.4551,-7.4583,-7.466,-7.4701,-7.4761,-7.477,-7.4717,-7.4907,-7.4835,-7.4916,-7.4915,-7.4952,-7.4949,-7.5185,-7.4987,-7.4987,-7.4986,-7.4986,0,-7.4121,-7.4223,-7.4249,-7.432,-7.4434,-7.4441,-7.4552,-7.458,-7.4629,-7.4704,-7.4688,-7.4758,-7.4769,-7.4842,-7.4851,-7.4961,-7.4981,-7.499,-7.499,-7.4989,-7.4988,-7.5013,-7.5,-7.4992,-7.4991,-7.499,-7.4989,0,-7.4282,-7.4304,-7.4429,-7.4487,-7.4505,-7.4585,-7.4635,-7.4703,-7.4723,-7.4819,-7.4841,-7.4873,-7.4958,-7.4975,-7.5076,-7.5082,-7.5213,-7.5204,-7.5193,-7.519,-7.5268,-7.5259,-7.5525,-7.5559,-7.5343,-7.5345,-7.5346,0,-7.4394,-7.4472,-7.454,-7.459,-7.4625,-7.4706,-7.4756,-7.4767,-7.4819,-7.4893,-7.4951,-7.5036,-7.5103,-7.5241,-7.5272,-7.5349,-7.534,-7.5428,-7.5351,-7.5347,-7.5337,-7.533,-7.5337,-7.5441,-7.5443,-7.5445,-7.5446,0,-7.4589,-7.4597,-7.4671,-7.4749,-7.481,-7.4872,-7.4931,-7.4973,-7.4991,-7.5051,-7.514,-7.5192,-7.5297,-7.5379,-7.5457,-7.5489,-7.547,-7.5472,-7.5493,-7.549,-7.5479,-7.5483,-7.5228,-7.5464,-7.5462,-7.5461,-7.546,-7.5459,-7.4727,-7.4794,-7.4853,-7.4936,-7.4982,-7.5037,-7.5104,-7.5133,-7.5207,-7.5293,-7.5296,-7.5391,-7.5448,-7.5551,-7.5588,-7.5662,-7.5634,-7.5667,-7.5674,-7.5681,-7.5687,-7.5472,-7.5677,-7.5676,-7.5676,-7.5676,-7.5675,0,-7.4918,-7.4955,-7.5032,-7.5115,-7.518,-7.5161,-7.5225,-7.528,-7.5365,-7.5421,-7.5488,-7.5589,-7.567,-7.5709,-7.5789,-7.5841,-7.5834,-7.5861,-7.5855,-7.5862,-7.5709,-7.568,-7.5865,-7.5865,-7.5865,-7.5865,-7.5865,-7.5865,-7.5025,-7.5138,-7.5153,-7.5288,-7.5325,-7.5419,-7.5457,-7.5508,-7.5552,-7.5666,-7.5734,-7.576,-7.5808,-7.5892,-7.5965,-7.5975,-7.6003,-7.6033,-7.6038,-7.5893,-7.5873,-7.5855,-7.5827,-7.604,-7.6041,-7.6185,-7.6186,-7.6187]},{"header":{"parameterUnit":"m.s-1","parameterCategory":1,"la1":30.2991,"la2":30.254,"lo1":-89.0895,"lo2":-89.0444,"dy":0.0017,"dx":0.0017,"nx":28,"ny":28,"refTime":"2024-04-28T21:00:00:Z","depth":0,"parameterNumber":3,"parameterNumberName":"V-component_of_WINDS"},"data":[0,0,0,0,0,0,0,0,0,0,0,0,0,0,0,0,0,0,0,0,0,0,0,0,0,0,0,0,0,0,0,0,0,0,0,0,0,0,0,0,0,0,0,0,0,0,0,0,0,0,0,0,0,0,0,0,0,0,4.7082,4.7082,0,4.7126,4.7127,4.7127,4.7081,4.708,4.7078,4.7076,4.7118,4.712,4.7123,0,0,0,0,0,0,0,0,0,0,0,0,0,4.6954,4.6957,4.7082,4.7082,4.7083,4.7126,4.7127,4.7128,4.7082,4.708,4.7077,4.7075,4.7117,4.712,4.7123,0,0,0,0,0,0,0,0,0,0,0,0,0,4.7005,4.6958,4.7082,4.7065,4.7064,4.7126,4.7127,4.7128,4.7082,4.708,4.7077,4.7074,4.7116,4.712,4.7124,4.7203,0,0,4.7136,4.7138,0,0,0,0,0,0,0,0,4.7003,4.701,4.7067,4.7067,4.7066,4.7096,4.7097,4.7153,4.7083,4.7075,4.7076,4.7073,4.7112,4.7117,4.7131,4.7205,4.7206,4.7137,4.7139,4.7141,4.7142,0,0,0,0,0,0,0,4.6999,4.7008,4.7099,4.7068,4.7067,4.7055,4.7059,4.7108,4.7108,4.7076,4.7073,4.7079,4.7111,4.7127,4.7131,4.7207,4.7137,4.714,4.7143,4.7145,4.7349,4.7352,0,0,0,0,0,0,4.6998,4.7005,4.7098,4.7101,4.7027,4.706,4.7064,4.7089,4.7107,4.7108,4.7081,4.7076,4.7121,4.7126,4.7132,4.7227,4.7141,4.7145,4.7147,4.7346,4.735,4.7353,0,0,0,0,0,0,4.6995,4.7007,4.7096,4.7052,4.7063,4.7065,4.7092,4.7091,4.7106,4.7111,4.7111,4.7097,4.7119,4.7127,4.7186,4.7227,4.7147,4.7151,4.7343,4.7347,4.7351,4.7415,0,0,0,0,0,0,4.6992,4.7006,4.7036,4.7053,4.7065,4.715,4.7095,4.7094,4.7114,4.7109,4.7126,4.7126,4.7118,4.718,4.719,4.7232,4.7154,4.7339,4.7345,4.735,4.7409,4.7421,4.7431,0,0,0,0,0,4.6987,4.7051,4.7038,4.7049,4.7103,4.7152,4.7159,4.7149,4.7118,4.7148,4.7152,4.7126,4.7222,4.7187,4.7198,4.7241,4.7336,4.7343,4.735,4.7404,4.7419,4.7431,0,0,0,0,0,0,4.7036,4.7053,4.7038,4.711,4.7131,4.7145,4.7182,4.7164,4.7193,4.7186,4.7171,4.7175,4.7239,4.7246,4.7207,4.7319,4.7274,4.7283,4.7312,4.7326,4.7336,4.7333,4.7157,0,0,0,0,0,4.7056,4.7096,4.7107,4.7169,4.7181,4.718,4.7201,4.7192,4.7211,4.7219,4.7227,4.7246,4.7281,4.7304,4.7336,4.7411,4.7414,4.7446,4.7457,4.7466,4.7474,4.7515,4.7529,4.7375,4.7375,4.7375,0,0,4.7096,4.711,4.7135,4.718,4.7194,4.7235,4.7187,4.7232,4.7261,4.7225,4.7283,4.7289,4.731,4.7378,4.7408,4.7386,4.7518,4.7475,4.7482,4.7485,4.7523,4.7538,4.7551,4.7379,4.7379,4.7378,0,0,4.7189,4.7204,4.7258,4.7275,4.7298,4.7298,4.7311,4.7329,4.7333,4.739,4.7365,4.7399,4.7459,4.7475,4.7491,4.7594,4.7572,4.7605,4.7662,4.7702,4.7715,4.7725,4.7762,4.7775,4.7613,4.7613,4.7613,0,4.7235,4.7297,4.7287,4.7335,4.7355,4.7327,4.7381,4.7397,4.743,4.7444,4.7419,4.7495,4.7506,4.7578,4.7604,4.7618,4.7632,4.7602,4.7714,4.7724,4.7734,4.7769,4.7783,4.7617,4.7617,4.7616,4.7616,0,4.7352,4.7396,4.7436,4.7471,4.7496,4.7546,4.7544,4.757,4.7559,4.7562,4.7621,4.7635,4.767,4.7686,4.7675,4.7757,4.7743,4.7716,4.767,4.7753,4.7786,4.7799,4.7623,4.7621,4.762,4.7619,0,0,4.7476,4.7507,4.7522,4.7538,4.7563,4.7596,4.7646,4.7682,4.7705,4.7729,4.7769,4.7822,4.7798,4.7817,4.7808,4.7843,4.7925,4.7812,4.7812,4.7832,4.8016,4.8035,4.8051,4.7911,4.7913,4.7915,4.8014,0,4.757,4.7657,4.7652,4.7733,4.7773,4.7749,4.7792,4.7812,4.7816,4.785,4.7854,4.7892,4.7857,4.7868,4.7903,4.7907,4.7961,4.79,4.7947,4.7949,4.7942,4.8068,4.8088,4.8181,4.8027,4.8029,4.8031,0,4.7691,4.7722,4.7808,4.783,4.7846,4.7886,4.7919,4.7952,4.7975,4.7975,4.7997,4.7983,4.8032,4.7987,4.8055,4.8014,4.8033,4.8039,4.8042,4.8045,4.7994,4.8074,4.821,4.8224,4.805,4.8049,4.8047,0,4.7772,4.7835,4.7896,4.791,4.7937,4.7965,4.7977,4.7997,4.802,4.8049,4.8064,4.8098,4.8116,4.8142,4.8138,4.8105,4.8207,4.8161,4.8208,4.8209,4.823,4.8228,4.837,4.8244,4.8243,4.8243,4.8243,0,4.7878,4.7932,4.7933,4.797,4.803,4.8023,4.8082,4.8091,4.811,4.8147,4.8128,4.8163,4.8155,4.8191,4.8187,4.8244,4.8253,4.8254,4.8252,4.8256,4.8255,4.8267,4.826,4.8247,4.8246,4.8245,4.8245,0,4.7978,4.7981,4.8045,4.8066,4.8073,4.8116,4.8134,4.8169,4.8172,4.822,4.8231,4.8236,4.8277,4.8276,4.8321,4.8319,4.839,4.8381,4.8383,4.838,4.8428,4.8423,4.8582,4.8602,4.8463,4.8464,4.8465,0,4.8044,4.8086,4.8112,4.8137,4.8152,4.8192,4.8216,4.8211,4.8237,4.8267,4.8298,4.8338,4.8369,4.8436,4.8443,4.8478,4.8469,4.8523,4.8474,4.8477,4.847,4.8467,4.8472,4.8532,4.8533,4.8535,4.8536,0,4.8163,4.8163,4.8199,4.8236,4.8266,4.8295,4.8321,4.8342,4.834,4.837,4.8413,4.8437,4.8486,4.8525,4.8559,4.8571,4.8553,4.8551,4.8564,4.8567,4.8567,4.8567,4.8408,4.8547,4.8546,4.8545,4.8544,4.8544,4.8248,4.8284,4.8309,4.835,4.837,4.8396,4.843,4.844,4.8476,4.8516,4.8511,4.8558,4.8581,4.8626,4.8641,4.8678,4.8658,4.8677,4.8681,4.8686,4.8691,4.8562,4.8684,4.8683,4.8683,4.8683,4.8683,0,4.8365,4.8381,4.8419,4.8458,4.849,4.8473,4.8502,4.853,4.8573,4.8597,4.8629,4.8679,4.8717,4.8729,4.8766,4.8794,4.8786,4.8803,4.8801,4.8804,4.8706,4.8691,4.8809,4.8809,4.8809,4.8809,4.8809,4.8809,4.843,4.849,4.8494,4.8565,4.8579,4.8628,4.8646,4.8669,4.8688,4.8745,4.8778,4.8786,4.8805,4.8844,4.8879,4.8881,4.8896,4.8916,4.8915,4.8823,4.8811,4.8799,4.8785,4.892,4.892,4.901,4.9011,4.9011]}]]